Warning: Javascript must be enabled to use all the features on this page!


Page Loading - Please Wait...

Click to hideNews Bulletins
  • Have your voice heard. Have a few minutes? We're surveying users about their experience with Water Data for the Nation (WDFN). Please take a few minutes to complete our online survey.
  • See the Water Data for the Nation Blog for the latest news and updates.

Peak Streamflow for the Nation

USGS 04164000 CLINTON RIVER NEAR FRASER, MI

Macomb County, Michigan
Hydrologic Unit Code 04090003
Latitude  42°34'40", Longitude  82°57'06" NAD27
Drainage area 444  square miles
Gage datum 577.21 feet above NAVD88
Output formats
Table
Graph
Tab-separated file
peakfq (watstore) format
Reselect output format
Water
Year
Date Gage
Height
(feet)
Stream-
flow
(cfs)
1947 1947-04-05 20.00 9,000
1948 1948-05-11 19.50 8,000
1949 1949-02-15 15.70 3,850
1950 1950-04-05 16.94 6,120
1951 1950-12-08 14.80 3,430
1952 1952-03-11 14.66 3,340
1953 1953-03-04 11.81 1,460
1954 1954-03-25 15.16 3,900
1955 1954-10-04 13.54 2,290
1956 1956-04-29 16.52 5,160
1957 1957-07-08 15.39 3,870
1958 1957-12-20 13.00 2,000
1959 1959-04-03 14.07 2,610
1960 1960-06-17 14.50 2,940
1961 1961-04-25 13.33 2,160
1962 1962-03-13 15.37 3,850
1963 1963-06-10 13.48 2,250
1964 1964-04-29 11.32 1,360
1965 1965-02-10 15.88 4,420
1966 1965-12-25 14.31 2,790
1967 1967-07-19 17.13 6,420
1968 1968-06-26 18.70 7,040
1969 1969-07-04 16.25 4,400
1970 1970-06-17 14.51 2,800
1971 1971-02-05 15.44 3,480
1972 1972-03-14   2,7002
1973 1973-06-26 15.76 4,370
1974 1974-03-09 15.31 3,780
1975 1975-04-19 16.80 5,520
1976 1976-07-29 18.00 7,050
1977 1977-04-03 15.16 3,620
1978 1978-03-14 14.04 2,590
1979 1979-04-14 16.34 5,110
1980 1980-04-04 15.62 4,120
1981 1981-07-28 13.00 2,000
1982 1981-10-01 19.56 8,840
1983 1983-05-02 16.58 4,840
1984 1984-03-16 16.00 4,240
1985 1985-02-23 17.491 5,730
1986 1986-06-11 16.10 4,340
1987 1987-06-22 14.96 3,300
1988 1987-12-15 15.30 3,590
1989 1989-09-09 15.30 3,590
1990 1990-02-22 17.48 5,880
1991 1991-05-26 17.15 5,490
1992 1992-07-15 15.00 3,330
1993 1993-01-04 16.65 4,720
1994 1994-06-13 15.94 4,190
1995 1995-08-03 15.38 3,660
1996 1996-06-19 16.17 4,420
1997 1997-05-19 16.91 4,900
1998 1998-02-18 17.83 6,190
1999 1999-04-23 16.33 4,190
2000 2000-04-20 16.29 4,140
2001 2001-02-10 16.22 4,060
2002 2001-10-16 15.93 3,750
2003 2003-04-05 14.20 2,280
2004 2004-05-24 17.93 6,040
2005 2005-02-16 15.90 3,510
2006 2005-11-16 15.88 3,490
2007 2006-12-01 16.40 4,270
2008 2008-09-14 18.29 6,930
2009 2009-03-08 16.92 4,910
2010 2010-06-06 16.38 4,250
2011 2011-05-25 18.46 7,220
2012 2011-11-29 17.66 5,940
2013 2013-06-29 15.75 3,780
2014 2014-08-12 20.84 12,300
2015 2015-05-31 16.56 4,620
2016 2016-09-29 16.43 4,310
2017 2017-03-01 16.29 4,140
2018 2018-02-21 16.40 4,310
2019 2019-05-01 16.08 3,990
2020 2020-01-11 17.83 6,200
2021 2021-09-23 17.82 6,190
?
  Peak Gage-Height Qualification Codes.
?
  Peak Streamflow Qualification Codes.